• In Latvia
  • List of Countries
  • For 7 days
  • Water Temperature
  • Satellite Maps
  • Weather Map
  • Weather Widgets
  • user-avatar
    Login

    Hourly Weather Buteni

    Today, 22 August, Wednesday

    Time Temperature Precipitation Wind Pressure Humidity
    00:00 +25°C° 0.1 mm 2 mps 749 mmHg 61%
    01:00 +24°C° 0.1 mm 3 mps 750 mmHg 67%
    02:00 +22°C° 0.1 mm 3 mps 750 mmHg 73%
    03:00 +22°C° 0 mm 3 mps 750 mmHg 76%
    04:00 +21°C° 0 mm 3 mps 750 mmHg 79%
    05:00 +20°C° 0 mm 3 mps 750 mmHg 82%
    06:00 +22°C° 0 mm 3 mps 751 mmHg 75%
    07:00 +23°C° 0 mm 4 mps 751 mmHg 68%
    08:00 +25°C° 0 mm 4 mps 751 mmHg 62%
    09:00 +27°C° 0 mm 4 mps 751 mmHg 55%
    10:00 +28°C° 0 mm 5 mps 752 mmHg 48%
    11:00 +30°C° 0 mm 5 mps 752 mmHg 42%
    12:00 +32°C° 0 mm 5 mps 752 mmHg 40%
    13:00 +32°C° 0 mm 5 mps 751 mmHg 38%
    14:00 +33°C° 0 mm 5 mps 751 mmHg 36%
    15:00 +32°C° 0 mm 4 mps 751 mmHg 36%
    16:00 +32°C° 0 mm 4 mps 751 mmHg 37%
    17:00 +32°C° 0 mm 4 mps 751 mmHg 37%
    18:00 +29°C° 0 mm 4 mps 751 mmHg 42%
    19:00 +27°C° 0 mm 3 mps 751 mmHg 46%
    20:00 +25°C° 0 mm 3 mps 752 mmHg 51%
    21:00 +24°C° 0 mm 3 mps 752 mmHg 53%
    22:00 +22°C° 0 mm 3 mps 752 mmHg 55%
    23:00 +21°C° 0 mm 3 mps 752 mmHg 57%

    Tomorrow, 23 August, Thursday

    Time Temperature Precipitation Wind Pressure Humidity
    00:00 +21°C° 0 mm 3 mps 752 mmHg 59%
    01:00 +20°C° 0 mm 3 mps 752 mmHg 60%
    02:00 +20°C° 0 mm 3 mps 752 mmHg 62%
    03:00 +19°C° 0 mm 3 mps 752 mmHg 62%
    04:00 +19°C° 0 mm 3 mps 752 mmHg 62%
    05:00 +18°C° 0 mm 2 mps 752 mmHg 63%
    06:00 +20°C° 0 mm 3 mps 752 mmHg 57%
    07:00 +21°C° 0 mm 3 mps 752 mmHg 52%
    08:00 +24°C° 0 mm 3 mps 752 mmHg 47%
    09:00 +26°C° 0 mm 3 mps 752 mmHg 43%
    10:00 +27°C° 0 mm 3 mps 752 mmHg 39%
    11:00 +29°C° 0 mm 3 mps 752 mmHg 36%
    12:00 +29°C° 0 mm 4 mps 752 mmHg 34%
    13:00 +30°C° 0 mm 4 mps 751 mmHg 32%
    14:00 +32°C° 0 mm 4 mps 751 mmHg 29%
    15:00 +32°C° 0 mm 4 mps 751 mmHg 29%
    16:00 +30°C° 0 mm 4 mps 750 mmHg 29%
    17:00 +30°C° 0 mm 4 mps 750 mmHg 28%
    18:00 +28°C° 0 mm 3 mps 750 mmHg 32%
    19:00 +26°C° 0 mm 3 mps 750 mmHg 35%
    20:00 +24°C° 0 mm 3 mps 750 mmHg 38%
    21:00 +23°C° 0 mm 2 mps 750 mmHg 39%
    22:00 +21°C° 0 mm 2 mps 750 mmHg 40%
    23:00 +20°C° 0 mm 2 mps 750 mmHg 41%

    Day after tomorrow, 24 August, Friday

    Time Temperature Precipitation Wind Pressure Humidity
    00:00 +19°C° 0 mm 2 mps 750 mmHg 41%
    01:00 +19°C° 0 mm 2 mps 750 mmHg 42%
    02:00 +19°C° 0 mm 1 mps 750 mmHg 42%
    03:00 +19°C° 0 mm 1 mps 750 mmHg 43%
    04:00 +18°C° 0 mm 1 mps 749 mmHg 43%
    05:00 +18°C° 0 mm 1 mps 749 mmHg 44%
    06:00 +19°C° 0 mm 1 mps 749 mmHg 42%
    07:00 +20°C° 0 mm 2 mps 749 mmHg 40%
    08:00 +23°C° 0 mm 2 mps 749 mmHg 38%
    09:00 +25°C° 0 mm 2 mps 749 mmHg 35%
    10:00 +27°C° 0 mm 3 mps 749 mmHg 33%
    11:00 +29°C° 0 mm 3 mps 749 mmHg 30%
    12:00 +30°C° 0 mm 3 mps 748 mmHg 27%
    13:00 +31°C° 0 mm 3 mps 748 mmHg 25%
    14:00 +33°C° 0 mm 3 mps 748 mmHg 23%
    15:00 +31°C° 0 mm 3 mps 747 mmHg 22%
    16:00 +31°C° 0 mm 3 mps 747 mmHg 22%
    17:00 +31°C° 0 mm 3 mps 747 mmHg 22%
    18:00 +29°C° 0 mm 3 mps 747 mmHg 24%
    19:00 +26°C° 0 mm 3 mps 747 mmHg 27%
    20:00 +24°C° 0 mm 2 mps 747 mmHg 29%
    21:00 +23°C° 0 mm 2 mps 747 mmHg 30%
    22:00 +22°C° 0 mm 1 mps 747 mmHg 31%
    23:00 +21°C° 0 mm 1 mps 747 mmHg 32%

    25 August, Saturday

    Time Temperature Precipitation Wind Pressure Humidity
    00:00 +20°C° 0 mm 1 mps 747 mmHg 32%
    01:00 +20°C° 0 mm 1 mps 746 mmHg 33%
    02:00 +19°C° 0 mm 1 mps 746 mmHg 34%
    03:00 +19°C° 0 mm 1 mps 746 mmHg 34%
    04:00 +19°C° 0 mm 1 mps 746 mmHg 35%
    05:00 +16°C° 0 mm 0 mps 746 mmHg 36%
    06:00 +21°C° 0 mm 1 mps 746 mmHg 34%
    07:00 +23°C° 0 mm 1 mps 746 mmHg 31%
    08:00 +25°C° 0 mm 2 mps 746 mmHg 29%
    09:00 +27°C° 0 mm 2 mps 746 mmHg 28%
    10:00 +29°C° 0 mm 3 mps 746 mmHg 28%
    11:00 +31°C° 0 mm 3 mps 745 mmHg 27%
    12:00 +33°C° 0 mm 4 mps 745 mmHg 27%
    13:00 +33°C° 0 mm 4 mps 745 mmHg 27%
    14:00 +34°C° 0 mm 4 mps 744 mmHg 27%
    15:00 +34°C° 0 mm 4 mps 744 mmHg 29%
    16:00 +34°C° 0 mm 4 mps 744 mmHg 30%
    17:00 +33°C° 0 mm 4 mps 743 mmHg 32%
    18:00 +30°C° 0 mm 3 mps 744 mmHg 38%
    19:00 +28°C° 0 mm 3 mps 744 mmHg 44%
    20:00 +25°C° 0 mm 3 mps 744 mmHg 51%
    21:00 +24°C° 0 mm 3 mps 744 mmHg 58%
    22:00 +23°C° 0 mm 2 mps 744 mmHg 65%
    23:00 +21°C° 0 mm 2 mps 744 mmHg 73%

    26 August, Sunday

    Time Temperature Precipitation Wind Pressure Humidity
    00:00 +21°C° 0 mm 2 mps 744 mmHg 76%
    01:00 +20°C° 0 mm 2 mps 744 mmHg 80%
    02:00 +21°C° 0 mm 1 mps 743 mmHg 83%
    03:00 +20°C° 0 mm 1 mps 743 mmHg 84%
    04:00 +20°C° 0 mm 1 mps 743 mmHg 86%
    05:00 +20°C° 0 mm 1 mps 743 mmHg 87%
    06:00 +20°C° 0 mm 2 mps 744 mmHg 78%
    07:00 +23°C° 0 mm 2 mps 744 mmHg 69%
    08:00 +25°C° 0 mm 2 mps 744 mmHg 60%
    09:00 +27°C° 0 mm 2 mps 744 mmHg 52%
    10:00 +29°C° 0 mm 2 mps 744 mmHg 45%
    11:00 +31°C° 0 mm 2 mps 743 mmHg 37%
    12:00 +32°C° 0 mm 2 mps 743 mmHg 34%
    13:00 +33°C° 0 mm 1 mps 743 mmHg 30%
    14:00 +34°C° 0 mm 1 mps 742 mmHg 26%
    15:00 +34°C° 0 mm 1 mps 742 mmHg 26%
    16:00 +34°C° 0 mm 1 mps 742 mmHg 26%
    17:00 +34°C° 0 mm 1 mps 742 mmHg 26%
    18:00 +31°C° 0 mm 1 mps 742 mmHg 30%
    19:00 +29°C° 0 mm 1 mps 742 mmHg 35%
    20:00 +27°C° 0 mm 2 mps 742 mmHg 40%
    21:00 +26°C° 0 mm 2 mps 742 mmHg 44%
    22:00 +25°C° 0 mm 2 mps 742 mmHg 49%
    23:00 +24°C° 0 mm 2 mps 743 mmHg 54%

    27 August, Monday

    Time Temperature Precipitation Wind Pressure Humidity
    00:00 +23°C° 0 mm 1 mps 743 mmHg 56%
    01:00 +23°C° 0 mm 1 mps 743 mmHg 58%
    02:00 +22°C° 0 mm 1 mps 743 mmHg 60%
    03:00 +22°C° 0 mm 1 mps 743 mmHg 62%
    04:00 +21°C° 0 mm 1 mps 743 mmHg 64%
    05:00 +19°C° 0 mm 0 mps 743 mmHg 66%
    06:00 +23°C° 0 mm 1 mps 743 mmHg 62%
    07:00 +24°C° 0 mm 1 mps 744 mmHg 57%
    08:00 +26°C° 0 mm 2 mps 744 mmHg 52%
    09:00 +28°C° 0 mm 2 mps 744 mmHg 47%
    10:00 +30°C° 0 mm 2 mps 744 mmHg 42%
    11:00 +31°C° 0 mm 2 mps 744 mmHg 37%
    12:00 +32°C° 0 mm 2 mps 744 mmHg 35%
    13:00 +32°C° 0 mm 2 mps 744 mmHg 34%
    14:00 +34°C° 0 mm 2 mps 744 mmHg 32%
    15:00 +31°C° 0 mm 3 mps 744 mmHg 36%
    16:00 +30°C° 0 mm 4 mps 744 mmHg 41%
    17:00 +29°C° 0 mm 4 mps 744 mmHg 45%
    18:00 +27°C° 0.2 mm 5 mps 744 mmHg 54%
    19:00 +24°C° 0.2 mm 6 mps 744 mmHg 63%
    20:00 +22°C° 0.2 mm 6 mps 745 mmHg 72%
    21:00 +21°C° 0.3 mm 6 mps 745 mmHg 76%
    22:00 +20°C° 0.3 mm 6 mps 745 mmHg 80%
    23:00 +19°C° 0.3 mm 6 mps 745 mmHg 84%
    Show more